Regional Weather Roundup
Issued by NWS Albany, NY

Home | Current Version | Previous Version | Graphics & Text | Print | Product List | Glossary On
Versions: 1 2 3 4 5 6 7 8 9 10 11 12 13 14 15 16 17 18 19 20 21 22 23 24 25 26 27 28
000
ASUS41 KALY 151910
RWRALY

NEW YORK STATE HOURLY WEATHER ROUNDUP
NATIONAL WEATHER SERVICE ALBANY NY
300 PM EDT SUN OCT 15 2017

NOTE: "FAIR" INDICATES FEW OR NO CLOUDS BELOW 12,000 FEET WITH NO
SIGNIFICANT WEATHER AND/OR NO OBSTRUCTIONS TO VISIBILITY.

NYZ032-033-038>043-046>054-057>066-NYZ062>081-082-084-152000-
EAST


CITY           SKY/WX    TMP DP  RH WIND       PRES   REMARKS
ALBANY         MOSUNNY   73  60  63 S17G28    29.76F
GLENS FALLS    MOSUNNY   74  61  63 S16G29    29.71F
POUGHKEEPSIE   PTSUNNY   75  61  61 S10G17    29.85F
NEWBURGH       PTSUNNY   72  64  78 W58       29.89F
MONTGOMERY     CLOUDY    71  63  75 SW14      29.86F
WHITE PLAINS   PTSUNNY   73  62  68 SW9       29.91F
ISLIP          CLOUDY    72  67  84 SW15G21   29.92F
NEW YORK CITY  PTSUNNY   73  62  68 SW16G23   29.91F
CENTRAL PARK   CLOUDY    72  62  71 VRB7      29.94F
$$

NYZ005>009-017-018-044>046-055-056-152000-
CENTRAL


CITY           SKY/WX    TMP DP  RH WIND       PRES   REMARKS
FULTON         CLOUDY    80  63  55 S14G26    29.62F
SYRACUSE       PTSUNNY   79  63  57 SW23G30   29.65F
ROME           MOSUNNY   79  62  56 S13G28    29.68F
ELMIRA         CLOUDY    77  64  64 SW16G26   29.74F
BINGHAMTON     PTSUNNY   73  61  65 S10G25    29.80F
MONTICELLO     PTSUNNY   68  61  77 S9G21     29.89F
$$

NYZ026>034-041>043-087-152000-
NORTH


CITY           SKY/WX    TMP DP  RH WIND       PRES   REMARKS
WATERTOWN      CLOUDY    76  64  66 S14G23    29.56F
FORT DRUM      NOT AVBL
OGDENSBURG     PTSUNNY   76  64  66 SW15G30   29.51F
MASSENA        CLOUDY    75  64  68 S15G26    29.51F
SARANAC LAKE   CLOUDY    70  60  70 SW20G31   29.63
PLATTSBURGH    PTSUNNY   73  59  61 S16G25    29.58F
$$

NYZ001>004-010>016-019>021-085-152000-
WEST


CITY           SKY/WX    TMP DP  RH WIND       PRES   REMARKS
NIAGARA FALLS  CLOUDY    77  64  64 SW30G44   29.59F
BUFFALO        PTSUNNY   76  64  66 SW24G39   29.61F
DUNKIRK        PTSUNNY   80  64  58 SW22G35   29.64F
JAMESTOWN      CLOUDY    73  62  68 SW22G30   29.73F
WELLSVILLE     MOSUNNY   76  60  57 SW17G31   29.76F
ROCHESTER      PTSUNNY   80  65  59 SW25G37   29.60F
$$

             KEY
       WCI = WIND CHILL INDEX
       VSB = VISIBILITY
       HX  = HEAT INDEX
$$




USA.gov is the U.S. government's official web portal to all federal, state and local government web resources and services.